P/2005 GF8 ( LONEOS )

Japanese version
Home page
Updated on December 8, 2018

---------------------------------------------------------------------

* Profile

Discovery Date April 2, 2005
Magnitude 17.8 mag
Discoverer Lowell Observatory Near-Earth Object Search

* Orbital Elements

Epoch 2005 Aug. 18.0 TT = JDT 2453600.5
T 2005 Aug. 17.52103 TT                                 MPCW
q   2.8295406            (2000.0)            P               Q
n   0.06956035     Peri.  285.33312     -0.49226806     +0.87032064
a   5.8554669      Node   315.16747     -0.79044283     -0.45400179
e   0.5167694      Incl.    1.18932     -0.36451653     -0.19085168
P  14.17
From 203 observations 2005 Apr. 2-2018 Dec. 6, mean residual 0".5.

* Finding Charts

* Magnitudes Graph

        m1 = 11.0 + 5 log d + 10.0 log r

---------------------------------------------------------------------

The orbital elements are published on M.P.E.C. 2018-X49.
The charts are made with StellaNavigator Ver.2.0 for Windows (AstroArts / ASCII).
The magnitudes graphs are made with Comet for Windows.

---------------------------------------------------------------------

Copyright(C) Seiichi Yoshida (comet@aerith.net). All rights reserved.